When you browse on this site, cookies collect data to enhance your experience and personalize the content and advertising you see.
Visit our Privacy Policy to learn more. By continuing to use the site, you agree to this use of cookies and data.

Hourly Weather Dolny Kubin

Today, 4 July, Saturday

Time Temperature Precipitation Wind Pressure Humidity
00:00 +13°C° 0 mm 1 mps 704 mmHg 97%
01:00 +13°C° 0 mm 1 mps 704 mmHg 97%
02:00 +13°C° 0 mm 1 mps 704 mmHg 97%
03:00 +12°C° 0 mm 1 mps 704 mmHg 97%
04:00 +12°C° 0 mm 1 mps 704 mmHg 98%
05:00 +14°C° 0 mm 1 mps 704 mmHg 93%
06:00 +15°C° 0 mm 1 mps 705 mmHg 89%
07:00 +18°C° 0 mm 1 mps 705 mmHg 85%
08:00 +20°C° 0 mm 1 mps 705 mmHg 75%
09:00 +21°C° 0 mm 1 mps 706 mmHg 65%
10:00 +23°C° 0 mm 1 mps 706 mmHg 55%
11:00 +24°C° 0 mm 1 mps 706 mmHg 55%
12:00 +24°C° 0 mm 1 mps 706 mmHg 55%
13:00 +24°C° 0 mm 1 mps 706 mmHg 54%
14:00 +24°C° 0 mm 1 mps 705 mmHg 55%
15:00 +24°C° 0 mm 1 mps 705 mmHg 55%
16:00 +24°C° 0 mm 1 mps 705 mmHg 55%
17:00 +22°C° 0 mm 1 mps 704 mmHg 64%
18:00 +21°C° 0 mm 1 mps 704 mmHg 72%
19:00 +19°C° 0 mm 1 mps 704 mmHg 81%
20:00 +18°C° 0 mm 1 mps 704 mmHg 84%
21:00 +15°C° 0 mm 1 mps 704 mmHg 87%
22:00 +13°C° 0 mm 0 mps 704 mmHg 90%
23:00 +13°C° 0 mm 0 mps 704 mmHg 90%

Tomorrow, 5 July, Sunday

Time Temperature Precipitation Wind Pressure Humidity
00:00 +12°C° 0 mm 0 mps 704 mmHg 90%
01:00 +12°C° 0 mm 0 mps 704 mmHg 90%
02:00 +12°C° 0 mm 0 mps 704 mmHg 90%
03:00 +11°C° 0 mm 0 mps 704 mmHg 90%
04:00 +11°C° 0 mm 0 mps 703 mmHg 91%
05:00 +13°C° 0 mm 0 mps 704 mmHg 83%
06:00 +16°C° 0 mm 0 mps 704 mmHg 76%
07:00 +18°C° 0 mm 0 mps 705 mmHg 69%
08:00 +20°C° 0 mm 0 mps 705 mmHg 62%
09:00 +24°C° 0 mm 1 mps 705 mmHg 55%
10:00 +26°C° 0 mm 1 mps 706 mmHg 48%
11:00 +26°C° 0 mm 1 mps 705 mmHg 47%
12:00 +27°C° 0 mm 1 mps 705 mmHg 45%
13:00 +28°C° 0 mm 1 mps 705 mmHg 43%
14:00 +27°C° 0 mm 1 mps 704 mmHg 46%
15:00 +27°C° 0 mm 2 mps 704 mmHg 49%
16:00 +26°C° 0 mm 2 mps 704 mmHg 52%
17:00 +25°C° 0 mm 1 mps 703 mmHg 62%
18:00 +23°C° 0 mm 1 mps 703 mmHg 72%
19:00 +22°C° 0 mm 1 mps 703 mmHg 81%
20:00 +18°C° 0 mm 0 mps 703 mmHg 85%
21:00 +17°C° 0 mm 0 mps 703 mmHg 89%
22:00 +16°C° 0 mm 0 mps 702 mmHg 93%
23:00 +16°C° 0 mm 0 mps 702 mmHg 93%

Day after tomorrow, 6 July, Monday

Time Temperature Precipitation Wind Pressure Humidity
00:00 +15°C° 0 mm 0 mps 702 mmHg 94%
01:00 +15°C° 0 mm 0 mps 702 mmHg 94%
02:00 +15°C° 0 mm 0 mps 702 mmHg 94%
03:00 +15°C° 0 mm 0 mps 701 mmHg 95%
04:00 +15°C° 0 mm 0 mps 701 mmHg 95%
05:00 +17°C° 0 mm 0 mps 701 mmHg 89%
06:00 +20°C° 0 mm 1 mps 702 mmHg 82%
07:00 +22°C° 0 mm 1 mps 702 mmHg 76%
08:00 +23°C° 0.1 mm 1 mps 702 mmHg 71%
09:00 +25°C° 0.1 mm 2 mps 702 mmHg 66%
10:00 +26°C° 0.1 mm 2 mps 702 mmHg 61%
11:00 +26°C° 0.1 mm 2 mps 702 mmHg 58%
12:00 +26°C° 0.1 mm 3 mps 701 mmHg 55%
13:00 +27°C° 0.1 mm 3 mps 701 mmHg 53%
14:00 +27°C° 0 mm 3 mps 701 mmHg 54%
15:00 +26°C° 0 mm 3 mps 701 mmHg 54%
16:00 +26°C° 0 mm 3 mps 701 mmHg 55%
17:00 +24°C° 0.1 mm 2 mps 701 mmHg 67%
18:00 +21°C° 0.1 mm 2 mps 700 mmHg 78%
19:00 +20°C° 0.1 mm 1 mps 700 mmHg 89%
20:00 +19°C° 0 mm 1 mps 701 mmHg 91%
21:00 +19°C° 0 mm 1 mps 701 mmHg 93%
22:00 +18°C° 0 mm 1 mps 701 mmHg 94%
23:00 +16°C° 0.3 mm 1 mps 701 mmHg 95%

7 July, Tuesday

Time Temperature Precipitation Wind Pressure Humidity
00:00 +15°C° 0.3 mm 2 mps 702 mmHg 96%
01:00 +15°C° 0.3 mm 2 mps 702 mmHg 96%
02:00 +14°C° 0.6 mm 2 mps 702 mmHg 97%
03:00 +13°C° 0.6 mm 2 mps 702 mmHg 97%
04:00 +12°C° 0.6 mm 2 mps 702 mmHg 98%
05:00 +12°C° 0.3 mm 2 mps 703 mmHg 96%
06:00 +12°C° 0.3 mm 2 mps 703 mmHg 95%
07:00 +12°C° 0.3 mm 2 mps 703 mmHg 93%
08:00 +13°C° 0 mm 2 mps 703 mmHg 83%
09:00 +14°C° 0 mm 2 mps 704 mmHg 73%
10:00 +16°C° 0 mm 2 mps 704 mmHg 63%
11:00 +16°C° 0.1 mm 2 mps 704 mmHg 60%
12:00 +17°C° 0.1 mm 3 mps 704 mmHg 57%
13:00 +18°C° 0.1 mm 3 mps 704 mmHg 54%
14:00 +18°C° 0 mm 3 mps 704 mmHg 53%
15:00 +18°C° 0 mm 3 mps 704 mmHg 52%
16:00 +18°C° 0 mm 3 mps 704 mmHg 52%
17:00 +17°C° 0 mm 2 mps 704 mmHg 59%
18:00 +15°C° 0 mm 2 mps 704 mmHg 67%
19:00 +14°C° 0 mm 1 mps 704 mmHg 74%
20:00 +12°C° 0 mm 1 mps 704 mmHg 79%
21:00 +10°C° 0 mm 0 mps 704 mmHg 84%
22:00 +9°C° 0 mm 0 mps 704 mmHg 89%
23:00 +8°C° 0 mm 0 mps 704 mmHg 90%

8 July, Wednesday

Time Temperature Precipitation Wind Pressure Humidity
00:00 +8°C° 0 mm 0 mps 704 mmHg 91%
01:00 +8°C° 0 mm 0 mps 704 mmHg 92%
02:00 +7°C° 0 mm 0 mps 704 mmHg 92%
03:00 +7°C° 0 mm 0 mps 704 mmHg 92%
04:00 +7°C° 0 mm 0 mps 704 mmHg 93%
05:00 +10°C° 0 mm 0 mps 705 mmHg 84%
06:00 +12°C° 0 mm 0 mps 706 mmHg 75%
07:00 +15°C° 0 mm 0 mps 706 mmHg 66%
08:00 +18°C° 0 mm 1 mps 706 mmHg 59%
09:00 +19°C° 0 mm 1 mps 707 mmHg 53%
10:00 +20°C° 0 mm 1 mps 707 mmHg 47%
11:00 +20°C° 0 mm 2 mps 707 mmHg 46%
12:00 +20°C° 0 mm 2 mps 707 mmHg 45%
13:00 +20°C° 0 mm 2 mps 707 mmHg 44%
14:00 +20°C° 0 mm 2 mps 707 mmHg 45%
15:00 +20°C° 0 mm 2 mps 707 mmHg 46%
16:00 +20°C° 0 mm 2 mps 706 mmHg 46%
17:00 +19°C° 0 mm 1 mps 706 mmHg 56%
18:00 +18°C° 0 mm 1 mps 706 mmHg 65%
19:00 +15°C° 0 mm 1 mps 706 mmHg 75%
20:00 +14°C° 0 mm 1 mps 706 mmHg 79%
21:00 +13°C° 0 mm 1 mps 706 mmHg 84%
22:00 +10°C° 0 mm 0 mps 706 mmHg 88%
23:00 +10°C° 0 mm 0 mps 706 mmHg 89%

9 July, Thursday

Time Temperature Precipitation Wind Pressure Humidity
00:00 +10°C° 0 mm 1 mps 706 mmHg 89%
01:00 +10°C° 0 mm 1 mps 706 mmHg 90%
02:00 +10°C° 0 mm 1 mps 706 mmHg 90%
03:00 +10°C° 0 mm 1 mps 705 mmHg 91%
04:00 +10°C° 0 mm 1 mps 705 mmHg 91%
05:00 +12°C° 0 mm 1 mps 706 mmHg 82%
06:00 +15°C° 0 mm 1 mps 706 mmHg 74%
07:00 +18°C° 0 mm 1 mps 706 mmHg 65%
08:00 +20°C° 0 mm 1 mps 707 mmHg 59%
09:00 +21°C° 0 mm 1 mps 707 mmHg 53%
10:00 +23°C° 0 mm 2 mps 707 mmHg 47%
11:00 +23°C° 0 mm 2 mps 707 mmHg 47%
12:00 +24°C° 0 mm 3 mps 706 mmHg 47%
13:00 +25°C° 0 mm 3 mps 706 mmHg 46%
14:00 +24°C° 0 mm 3 mps 706 mmHg 49%
15:00 +24°C° 0 mm 3 mps 706 mmHg 51%
16:00 +24°C° 0 mm 3 mps 705 mmHg 54%
17:00 +21°C° 0 mm 2 mps 705 mmHg 62%
18:00 +20°C° 0 mm 2 mps 705 mmHg 71%
19:00 +19°C° 0 mm 1 mps 704 mmHg 79%
20:00 +18°C° 0 mm 1 mps 704 mmHg 83%
21:00 +16°C° 0 mm 1 mps 704 mmHg 86%
22:00 +14°C° 0 mm 1 mps 704 mmHg 90%
23:00 +14°C° 0 mm 1 mps 704 mmHg 90%
Show more